[[{"header":{"parameterUnit":"m.s-1","parameterCategory":1,"la1":30.2991,"la2":30.254,"lo1":-89.0895,"lo2":-89.0444,"dy":0.0017,"dx":0.0017,"nx":28,"ny":28,"refTime":"2025-05-24T21:00:00:Z","depth":0,"parameterNumber":2,"parameterNumberName":"U-component_of_WINDS"},"data":[0,0,0,0,0,0,0,0,0,0,0,0,0,0,0,0,0,0,0,0,0,0,0,0,0,0,0,0,0,0,0,0,0,0,0,0,0,0,0,0,0,0,0,0,0,0,0,0,0,0,0,0,0,0,0,0,0,0,0.5264,0.5264,0,0.532,0.5321,0.5321,0.5326,0.5326,0.5325,0.5324,0.5383,0.5385,0.5387,0,0,0,0,0,0,0,0,0,0,0,0,0,0.516,0.5162,0.5264,0.5264,0.5265,0.532,0.5321,0.5322,0.5326,0.5326,0.5325,0.5324,0.5382,0.5385,0.5387,0,0,0,0,0,0,0,0,0,0,0,0,0,0.5209,0.5162,0.5264,0.5274,0.5276,0.532,0.5321,0.5322,0.5327,0.5326,0.5325,0.5324,0.5381,0.5385,0.5388,0.5426,0,0,0.5397,0.5399,0,0,0,0,0,0,0,0,0.5207,0.5213,0.5272,0.5274,0.5275,0.5315,0.5306,0.5357,0.5327,0.5307,0.5324,0.5323,0.5361,0.5366,0.5379,0.5428,0.5431,0.5398,0.54,0.5401,0.5402,0,0,0,0,0,0,0,0.5203,0.5211,0.5286,0.5273,0.5275,0.5276,0.5282,0.5315,0.5339,0.5309,0.5309,0.5316,0.5362,0.5376,0.538,0.5432,0.5398,0.54,0.5402,0.5404,0.5514,0.5515,0,0,0,0,0,0,0.5198,0.5208,0.5284,0.5288,0.5238,0.5279,0.5285,0.5303,0.5338,0.5343,0.5317,0.5316,0.5371,0.5376,0.5382,0.5428,0.5401,0.5404,0.5406,0.5513,0.5514,0.5515,0,0,0,0,0,0,0.5196,0.5205,0.5282,0.5248,0.5258,0.5281,0.5302,0.5305,0.5319,0.5344,0.5348,0.5326,0.537,0.5378,0.5414,0.543,0.5405,0.5408,0.5512,0.5513,0.5515,0.552,0,0,0,0,0,0,0.5193,0.5204,0.5219,0.5248,0.526,0.5314,0.5303,0.5307,0.5324,0.5324,0.5354,0.5359,0.537,0.541,0.5418,0.5434,0.5411,0.551,0.5512,0.5514,0.5519,0.5522,0.5524,0,0,0,0,0,0.5189,0.5218,0.5219,0.5228,0.5279,0.5314,0.5321,0.5333,0.5325,0.534,0.5356,0.5358,0.5427,0.5413,0.5422,0.544,0.5509,0.5512,0.5514,0.5517,0.5521,0.5524,0,0,0,0,0,0,0.519,0.5222,0.5224,0.5264,0.5286,0.5315,0.5334,0.5337,0.5362,0.5361,0.5375,0.5382,0.5418,0.5433,0.5417,0.5478,0.5467,0.5471,0.5467,0.5471,0.5473,0.5469,0.5413,0,0,0,0,0,0.5195,0.5221,0.5248,0.5281,0.5292,0.5311,0.5327,0.5335,0.5358,0.5368,0.5387,0.541,0.5437,0.5455,0.5481,0.5521,0.5527,0.5537,0.554,0.5542,0.5546,0.5566,0.5571,0.5523,0.5523,0.5523,0,0,0.5206,0.5227,0.5242,0.5282,0.53,0.5326,0.5319,0.5348,0.5368,0.5373,0.5408,0.5423,0.545,0.5488,0.5505,0.5501,0.556,0.5545,0.5547,0.5549,0.5569,0.5574,0.5578,0.5524,0.5524,0.5524,0,0,0.5239,0.5257,0.5286,0.5304,0.5331,0.5344,0.5351,0.5379,0.5389,0.5424,0.5428,0.5452,0.5498,0.5517,0.5532,0.557,0.5572,0.5579,0.5593,0.5613,0.5617,0.5621,0.5633,0.5638,0.5582,0.5582,0.5582,0,0.5248,0.5289,0.5301,0.5329,0.5345,0.535,0.5379,0.5396,0.5431,0.5442,0.5437,0.5494,0.5513,0.5554,0.5564,0.5576,0.5584,0.5575,0.5616,0.5619,0.5623,0.5635,0.564,0.5582,0.5582,0.5582,0.5582,0,0.5299,0.5326,0.5346,0.5379,0.5398,0.5426,0.5442,0.546,0.5465,0.5478,0.5514,0.5536,0.5566,0.5577,0.5583,0.5619,0.5616,0.5613,0.5603,0.5628,0.5639,0.5644,0.5583,0.5583,0.5583,0.5583,0,0,0.5335,0.5373,0.538,0.5394,0.5424,0.5446,0.5474,0.5503,0.5517,0.5541,0.5565,0.5603,0.56,0.5618,0.5625,0.5643,0.5671,0.5638,0.5639,0.5643,0.5711,0.5713,0.5718,0.5672,0.5673,0.5674,0.5709,0,0.537,0.5421,0.5432,0.5475,0.55,0.5504,0.5529,0.555,0.5562,0.5585,0.5599,0.5626,0.562,0.563,0.5648,0.5664,0.5685,0.5661,0.5694,0.5695,0.5687,0.5725,0.5727,0.5759,0.5714,0.5715,0.5715,0,0.5419,0.5442,0.5488,0.5513,0.5524,0.5546,0.5573,0.5595,0.5619,0.5626,0.5645,0.5651,0.568,0.5668,0.5708,0.5692,0.5706,0.5715,0.5717,0.572,0.5706,0.5729,0.577,0.5774,0.5723,0.5722,0.5722,0,0.5439,0.5483,0.5515,0.5528,0.5558,0.5573,0.5587,0.5609,0.5626,0.5649,0.566,0.5687,0.5701,0.5721,0.5734,0.5724,0.5773,0.5762,0.5779,0.5779,0.5789,0.5789,0.5833,0.5799,0.5799,0.5799,0.5799,0,0.5478,0.5505,0.5525,0.5545,0.5575,0.5588,0.5618,0.5631,0.5651,0.5673,0.5679,0.57,0.5715,0.5738,0.5748,0.5779,0.5786,0.5792,0.5795,0.5792,0.5791,0.5801,0.5799,0.58,0.58,0.58,0.5799,0,0.5506,0.552,0.5556,0.5582,0.5589,0.561,0.5632,0.5651,0.5664,0.5692,0.5699,0.5718,0.5745,0.576,0.5794,0.58,0.5835,0.5836,0.5827,0.5828,0.5844,0.5842,0.5896,0.5903,0.5865,0.5865,0.5866,0,0.5529,0.555,0.5578,0.5593,0.5607,0.5632,0.5648,0.566,0.5677,0.5705,0.5721,0.5748,0.577,0.5813,0.583,0.5856,0.5858,0.5875,0.5862,0.5858,0.5857,0.5855,0.5857,0.5877,0.5877,0.5878,0.5878,0,0.5569,0.5575,0.5598,0.5624,0.5643,0.5664,0.5684,0.5697,0.5712,0.5731,0.5758,0.5776,0.581,0.5837,0.5864,0.5877,0.588,0.5882,0.5887,0.5884,0.5877,0.588,0.5833,0.588,0.588,0.588,0.588,0.588,0.5595,0.5614,0.5636,0.5661,0.5678,0.5697,0.5716,0.573,0.5753,0.5781,0.5787,0.5816,0.5838,0.5874,0.5889,0.5911,0.5908,0.5915,0.5917,0.5919,0.5919,0.5874,0.5916,0.5916,0.5916,0.5916,0.5916,0,0.5634,0.5648,0.5672,0.57,0.572,0.572,0.5743,0.5759,0.5784,0.5804,0.5826,0.5857,0.5883,0.5901,0.5927,0.5942,0.5943,0.5948,0.5947,0.595,0.5921,0.5914,0.5946,0.5946,0.5946,0.5946,0.5946,0.5946,0.5657,0.5688,0.5696,0.5735,0.5749,0.5777,0.579,0.5807,0.5823,0.5857,0.5878,0.589,0.5909,0.5936,0.5959,0.5964,0.5973,0.5978,0.5982,0.5955,0.5952,0.5949,0.5942,0.598,0.598,0.6009,0.6009,0.6009]},{"header":{"parameterUnit":"m.s-1","parameterCategory":1,"la1":30.2991,"la2":30.254,"lo1":-89.0895,"lo2":-89.0444,"dy":0.0017,"dx":0.0017,"nx":28,"ny":28,"refTime":"2025-05-24T21:00:00:Z","depth":0,"parameterNumber":3,"parameterNumberName":"V-component_of_WINDS"},"data":[0,0,0,0,0,0,0,0,0,0,0,0,0,0,0,0,0,0,0,0,0,0,0,0,0,0,0,0,0,0,0,0,0,0,0,0,0,0,0,0,0,0,0,0,0,0,0,0,0,0,0,0,0,0,0,0,0,0,2.6966,2.6966,0,2.6982,2.6982,2.6982,2.6939,2.6938,2.6936,2.6935,2.6949,2.695,2.6952,0,0,0,0,0,0,0,0,0,0,0,0,0,2.6895,2.6896,2.6966,2.6966,2.6966,2.6982,2.6982,2.6982,2.6939,2.6938,2.6936,2.6934,2.6948,2.695,2.6952,0,0,0,0,0,0,0,0,0,0,0,0,0,2.692,2.6897,2.6966,2.6947,2.6945,2.6982,2.6982,2.6982,2.694,2.6938,2.6936,2.6934,2.6948,2.695,2.6952,2.7007,0,0,2.696,2.6961,0,0,0,0,0,0,0,0,2.6918,2.6922,2.6949,2.6948,2.6946,2.6956,2.6962,2.6991,2.694,2.6942,2.6935,2.6933,2.6953,2.6955,2.6962,2.7008,2.7009,2.696,2.6961,2.6962,2.6963,0,0,0,0,0,0,0,2.6917,2.6921,2.6972,2.695,2.6948,2.6936,2.6938,2.6967,2.6958,2.6941,2.6938,2.6941,2.6951,2.696,2.6962,2.7009,2.696,2.6962,2.6963,2.6964,2.71,2.7103,0,0,0,0,0,0,2.6918,2.692,2.6971,2.6972,2.6927,2.6939,2.6941,2.6955,2.6958,2.6956,2.6943,2.6939,2.6957,2.6959,2.6962,2.7027,2.6962,2.6965,2.6966,2.7098,2.7101,2.7103,0,0,0,0,0,0,2.6916,2.6923,2.6971,2.6946,2.6951,2.6943,2.6959,2.6957,2.6965,2.6959,2.6956,2.6953,2.6955,2.6959,2.6997,2.7027,2.6966,2.6968,2.7096,2.7099,2.7102,2.7156,0,0,0,0,0,0,2.6915,2.6923,2.6944,2.6946,2.6952,2.7006,2.6961,2.6958,2.6969,2.6965,2.6968,2.6966,2.6954,2.6993,2.6999,2.7029,2.697,2.7093,2.7097,2.7101,2.7152,2.7161,2.7169,0,0,0,0,0,2.6912,2.6958,2.6945,2.6952,2.6979,2.7008,2.7011,2.6997,2.6972,2.6993,2.6989,2.6966,2.7023,2.6997,2.7004,2.7035,2.7091,2.7096,2.7101,2.7148,2.7159,2.7169,0,0,0,0,0,0,2.6958,2.6958,2.6944,2.6992,2.7001,2.7001,2.7027,2.7009,2.7024,2.7018,2.6999,2.7,2.7041,2.7042,2.7014,2.7088,2.7052,2.7059,2.7086,2.7097,2.7105,2.7104,2.6972,0,0,0,0,0,2.6974,2.6999,2.6997,2.7039,2.7044,2.7035,2.7047,2.7035,2.7042,2.7045,2.7044,2.7052,2.7071,2.7084,2.7101,2.7152,2.7152,2.7176,2.7185,2.7192,2.7197,2.7224,2.7235,2.7119,2.7119,2.7119,0,0,2.7007,2.701,2.7026,2.7049,2.7054,2.7078,2.7038,2.7066,2.7084,2.7049,2.7085,2.7085,2.7091,2.7136,2.7155,2.7137,2.7229,2.7198,2.7204,2.7205,2.723,2.7241,2.7251,2.7123,2.7122,2.7121,0,0,2.708,2.7085,2.7121,2.7127,2.7136,2.7129,2.7138,2.7141,2.7139,2.7175,2.715,2.717,2.7204,2.721,2.7217,2.7293,2.7272,2.7299,2.7343,2.737,2.7379,2.7387,2.7414,2.7423,2.7304,2.7305,2.7305,0,2.7119,2.7157,2.7141,2.7171,2.7182,2.7153,2.7189,2.7195,2.7208,2.7216,2.7196,2.7238,2.724,2.7285,2.7304,2.7311,2.732,2.7298,2.7379,2.7387,2.7394,2.7419,2.7429,2.7308,2.7307,2.7307,2.7307,0,2.7205,2.7231,2.7259,2.7274,2.7287,2.732,2.7309,2.7324,2.7311,2.7307,2.7343,2.7345,2.7363,2.7373,2.736,2.7416,2.7405,2.7382,2.7346,2.7408,2.7432,2.7441,2.7312,2.7311,2.731,2.7309,0,0,2.7306,2.7313,2.7324,2.733,2.7338,2.7357,2.7388,2.7406,2.742,2.743,2.7455,2.7484,2.7464,2.7472,2.746,2.7483,2.7542,2.7457,2.7457,2.7473,2.7604,2.7621,2.7633,2.7529,2.753,2.7532,2.7604,0,2.7378,2.7433,2.742,2.7474,2.7497,2.747,2.7497,2.7505,2.7501,2.752,2.7515,2.7537,2.7508,2.7513,2.7534,2.753,2.7568,2.7525,2.7551,2.7552,2.7551,2.7645,2.7663,2.7731,2.7613,2.7614,2.7615,0,2.7469,2.7484,2.754,2.7544,2.7554,2.7578,2.7594,2.7613,2.762,2.7616,2.7626,2.7609,2.7638,2.7603,2.7643,2.7614,2.7624,2.7624,2.7626,2.7628,2.7588,2.7649,2.7752,2.7763,2.763,2.7629,2.7628,0,2.7538,2.7572,2.761,2.7616,2.7622,2.764,2.7643,2.7648,2.766,2.7673,2.768,2.7696,2.7705,2.7718,2.7705,2.768,2.7748,2.7711,2.7745,2.7745,2.776,2.776,2.7866,2.7767,2.7767,2.7767,2.7766,0,2.7619,2.7654,2.7641,2.7664,2.7703,2.7688,2.7726,2.7726,2.7731,2.7753,2.773,2.7752,2.7734,2.7754,2.7744,2.7779,2.7783,2.778,2.7777,2.7782,2.7783,2.7788,2.7783,2.7769,2.7769,2.7768,2.7768,0,2.7702,2.7695,2.7734,2.7737,2.7738,2.7767,2.7768,2.7789,2.7784,2.7813,2.7819,2.7811,2.7832,2.7821,2.7844,2.7837,2.7883,2.7873,2.7881,2.7878,2.7913,2.791,2.8027,2.8042,2.7933,2.7934,2.7935,0,2.7754,2.7781,2.7787,2.7801,2.7806,2.7828,2.784,2.7826,2.7839,2.785,2.787,2.789,2.7905,2.7941,2.7937,2.7953,2.7944,2.7984,2.7947,2.7951,2.7945,2.7943,2.7946,2.7992,2.7993,2.7994,2.7995,0,2.7848,2.7843,2.7862,2.788,2.7896,2.7909,2.792,2.7932,2.7918,2.7934,2.7957,2.7969,2.7992,2.8012,2.8027,2.8028,2.8009,2.8007,2.8016,2.8021,2.8024,2.8023,2.7901,2.8004,2.8003,2.8002,2.8002,2.8002,2.7917,2.794,2.7948,2.797,2.7977,2.7988,2.8008,2.8006,2.8025,2.8044,2.8034,2.806,2.8066,2.8084,2.8089,2.8109,2.8092,2.8105,2.8108,2.8112,2.8117,2.8021,2.8111,2.8111,2.8111,2.811,2.811,0,2.801,2.8014,2.8034,2.8051,2.8068,2.8049,2.8061,2.8076,2.81,2.8108,2.8124,2.8149,2.8169,2.8166,2.8184,2.82,2.8192,2.8205,2.8204,2.8205,2.813,2.8121,2.8212,2.8212,2.8212,2.8212,2.8212,2.8212,2.806,2.8098,2.8094,2.8134,2.8137,2.8164,2.8172,2.8182,2.8188,2.8218,2.8235,2.8233,2.8237,2.8255,2.8271,2.827,2.8277,2.8294,2.829,2.822,2.821,2.82,2.8191,2.8296,2.8296,2.8363,2.8363,2.8364]}]]